CANVAS

导读

### CANVAS(NORAD 68635)卫星摘要 CANVAS全称为“空间人为与自然甚低频波活动气候学”立方体卫星,2026年4月7日搭乘米诺陶IV火箭从美国范登堡太空军基地发射,北美防空司令部编目编号NORAD 68635,为NASA立方体卫星发射 initiative 支持的科学探测任务。卫星重约10公斤,运行于520公里高度太阳同步轨道,核心任务是全球连续观测闪电、地磁活动产生的自然甚低频(VLF)波及地面人工设施释放的同类电磁信号,填补此前地面观测网络覆盖率不足40%的空白。2026年5月完成在轨校准后正式投入观测,已回传首批1.2TB数据,将为提升空间天气预警准确性、研究电离层动态变化提供关键支撑,其研发与运营成本仅为传统同类观测任务的15%,是小卫星低成本科学探测的典型项目。

基本信息
目录编号:
68635
目录名称:
CANVAS
国际标识:
2026-074J
轨道中心:
EARTH
卫星名称:
CANVAS
卫星全名:
CANVAS
卫星状态:
在轨 (已飞行150 天)
发射日期:
2026-04-07 UTC
国别 :
美国 (US)
星等 :
--
轨道信息
数据来源 国际轨道数据
星历时间: 2026-09-03T18:44:48+0800
17小时前
查看轨道信息
半长轴: 6863.728km
偏心率: 0.0037262
轨道倾角: 60.021°
近地点辐角 78.918°
升交点赤经 237.040°
平近点角 281.609°
近地点: 460.015km
远地点: 511.167km
周期: 94.319分钟
每日圈数: 15.267316
详细信息
使用方式:
暂无
2D轨道图
3D轨道图
轨道高度分析图
轨道倾角分析图
轨道综合分析图
查看轨道综合分析图
交会数据列表
事件ID 空间交会对象 最接近时刻(TCA) 交会距离 交会风险概率(CRP) 交会风险指数(CRI) 操作
CDM_260831-024906-607706-863522
CANVAS (68635)
2026-08-31T
02:49:29+0000
1.830 km
极远距离
2.745204E-6 低风险 0.44
CDM_260904-103606-015606-863522
CANVAS (68635)
2026-09-04T
10:36:26+0000
1.576 km
极远距离
2.06499E-6 低风险 0.41